Victoria, British Columbia

3:20 AM PST on December 15, 2017 (GMT -0800)
Victoria International

Weather History for CYYJ - December, 2012

Change the Weather History Date:

Wednesday, December 26, 2012

  Actual Average Record
Temperature  
Mean Temperature 40 °F -  
Max Temperature 43 °F 44 °F 53 °F (2005)
Min Temperature 36 °F 33 °F 19 °F (1996)
Degree Days  
Heating Degree Days 26    
Moisture  
Dew Point 39 °F    
Average Humidity 93    
Maximum Humidity 100    
Minimum Humidity 81    
Precipitation  
Precipitation 0.20 in 0.19 in - ()
Sea Level Pressure  
Sea Level Pressure 29.77 in    
Wind  
Wind Speed 6 mph ()    
Max Wind Speed 13 mph    
Max Gust Speed -    
Visibility 12.3 miles    
Events Rain    
Averages and records for this station are not official NWS values.
T = Trace of Precipitation, MM = Missing Value Source: Averaged Metar Reports

Daily Weather History Graph

Daily Weather History Graph

Search for Another Location

Airport or City:

Trip Planner

Search our weather history database for the weather conditions in past years. The results will help you decide how hot, cold, wet, or windy it might be!

Date:

Astronomy

Dec. 26, 2012 Rise Set
Actual Time 8:05 AM PST 4:23 PM PST
Civil Twilight 7:28 AM PST 5:00 PM PST
Nautical Twilight 6:48 AM PST 5:40 PM PST
Astronomical Twilight 6:10 AM PST 6:19 PM PST
Moon 3:24 PM PST (12/26) 6:31 AM PST (12/26)
Length of Visible Light 9h 32m
Length of Day
8h 18m
Waxing Gibbous, 98% of the Moon is Illuminated
Dec 26
Waxing Gibbous
Dec 28
Full
Jan 4
Last Quarter
Jan 11
New
Jan 18
First Quarter

Hourly Weather History & Observations

Time (PST) Temp. Windchill Dew Point Humidity Pressure Visibility Wind Dir Wind Speed Gust Speed Precip Events Conditions
12:00 AM 39.2 °F 37.0 °F 37.4 °F 93% 29.69 in 20.0 mi West 3.5 mph - N/A   Overcast
1:00 AM 39.2 °F 35.0 °F 37.4 °F 93% 29.70 in 20.0 mi West 5.8 mph - N/A   Overcast
2:00 AM 37.4 °F 32.8 °F 37.4 °F 100% 29.70 in 15.0 mi WNW 5.8 mph - N/A   Overcast
3:00 AM 37.4 °F - 37.4 °F 100% 29.70 in 15.0 mi West 2.3 mph - N/A   Overcast
4:00 AM 38 °F - 37 °F 97% 29.71 in 15 mi West 3.5 mph - -   Partly Cloudy
4:00 AM 39.2 °F 35.9 °F 37.4 °F 93% 29.71 in 15.0 mi West 4.6 mph - N/A   Overcast
5:00 AM 39.2 °F 35.0 °F 37.4 °F 93% 29.70 in 20.0 mi WSW 5.8 mph - N/A   Overcast
6:00 AM 39.2 °F 35.9 °F 37.4 °F 93% 29.71 in 20.0 mi WSW 4.6 mph - N/A   Overcast
7:00 AM 39.2 °F 37.0 °F 37.4 °F 93% 29.72 in 20.0 mi WNW 3.5 mph - N/A   Overcast
7:03 AM 39.2 °F 35.0 °F - N/A% - 20.0 mi NW 5.8 mph - N/A Rain Light Rain
7:36 AM 39.2 °F 35.9 °F - N/A% - 20.0 mi WSW 4.6 mph - N/A   Overcast
8:00 AM 39.2 °F 35.9 °F 37.4 °F 93% 29.73 in 20.0 mi WSW 4.6 mph - N/A   Overcast
9:00 AM 39.2 °F - 39.2 °F 100% 29.75 in 15.0 mi Calm Calm - N/A   Overcast
9:10 AM 39.2 °F - - N/A% - 15.0 mi West 2.3 mph - N/A Rain Light Rain
9:35 AM 41.0 °F 37.1 °F - N/A% - 15.0 mi East 5.8 mph - N/A   Overcast
10:00 AM 42 °F - 39 °F 86% 29.76 in 19 mi East 9.2 mph - - Rain Light Rain
10:00 AM 42.8 °F 38.0 °F 39.2 °F 87% 29.76 in 20.0 mi East 8.1 mph - N/A   Overcast
11:00 AM 42.8 °F 37.0 °F 37.4 °F 81% 29.76 in 20.0 mi East 10.4 mph - N/A   Overcast
12:00 PM 42.8 °F 37.0 °F 39.2 °F 87% 29.75 in 20.0 mi ESE 10.4 mph - N/A   Overcast
1:00 PM 42.8 °F 36.6 °F 39.2 °F 87% 29.75 in 20.0 mi East 11.5 mph - N/A Rain Light Rain
2:00 PM 42.8 °F 36.6 °F 39.2 °F 87% 29.75 in 15.0 mi ENE 11.5 mph - N/A Rain Light Rain
2:37 PM 42.8 °F 37.5 °F - N/A% - 12.0 mi NNE 9.2 mph - N/A Rain Light Rain
3:00 PM 42.8 °F 38.0 °F 41.0 °F 93% 29.75 in 12.0 mi NE 8.1 mph - N/A Rain Light Rain
4:00 PM 43 °F - 41 °F 89% 29.77 in 5 mi ENE 9.2 mph - - Rain Light Rain
4:00 PM 42.8 °F 37.5 °F 41.0 °F 93% 29.77 in 5.0 mi ENE 9.2 mph - N/A Rain Light Rain
5:00 PM 42.8 °F 38.0 °F 41.0 °F 93% 29.78 in 5.0 mi NE 8.1 mph - N/A Rain Light Rain
5:46 PM 42.8 °F 36.6 °F - N/A% - 3.0 mi North 11.5 mph - N/A Rain Light Rain
6:00 PM 42.8 °F 36.2 °F 41.0 °F 93% 29.80 in 3.0 mi North 12.7 mph - N/A Rain Light Rain
6:13 PM 41.0 °F 34.7 °F - N/A% - 1.5 mi North 10.4 mph - N/A Rain Light Rain
7:00 PM 41.0 °F 34.7 °F 41.0 °F 100% 29.82 in 1.0 mi North 10.4 mph - N/A Rain Light Rain
8:00 PM 41.0 °F 34.7 °F 41.0 °F 100% 29.85 in 1.0 mi North 10.4 mph - N/A Rain Light Rain
8:14 PM 41.0 °F 34.7 °F - N/A% - 4.0 mi North 10.4 mph - N/A   Light Drizzle
9:00 PM 41.0 °F 34.3 °F 41.0 °F 100% 29.88 in 4.0 mi North 11.5 mph - N/A   Light Drizzle
9:25 PM 41.0 °F 35.2 °F - N/A% - 5.0 mi NNW 9.2 mph - N/A   Light Drizzle
9:31 PM 41.0 °F 35.2 °F - N/A% - 5.0 mi NNW 9.2 mph - N/A Rain Light Rain
10:00 PM 41 °F - 39 °F 90% 29.90 in 7 mi North 5.8 mph - - Rain Light Rain
10:00 PM 41.0 °F 36.4 °F 39.2 °F 93% 29.90 in 8.0 mi North 6.9 mph - N/A Rain Light Rain
10:43 PM 41.0 °F 37.1 °F - N/A% - 10.0 mi NNW 5.8 mph - N/A   Overcast
11:00 PM 41.0 °F 36.4 °F 39.2 °F 93% 29.92 in 10.0 mi NNW 6.9 mph - N/A   Overcast
11:38 PM 41.0 °F 38.0 °F - N/A% - 10.0 mi NW 4.6 mph - N/A Rain Light Rain